Regional Weather Roundup
Issued by NWS Jackson, KY

Home | Current Version | Previous Version | Graphics & Text | Print | Product List | Glossary On
Versions: 1 2 3 4 5 6 7 8 9 10 11 12 13 14 15 16 17 18 19 20 21 22 23 24 25 26 27 28 29 30 31 32 33 34 35 36 37 38 39 40 41 42 43 44 45 46 47 48 49
000
ASUS43 KJKL 291810
RWRJKL

EAST KENTUCKY HOURLY WEATHER ROUNDUP
NATIONAL WEATHER SERVICE JACKSON KY
200 PM EDT WED JUL 29 2015

NOTE: "FAIR" INDICATES FEW OR NO CLOUDS BELOW 12,000 FEET WITH
NO SIGNIFICANT WEATHER AND/OR OBSTRUCTIONS TO VISIBILITY.

* THESE REPORTS ARE NOT UNDER NWS QUALITY CONTROL AND MAY NOT
  REPORT WEATHER SUCH AS PRECIPITATION AND FOG.

KYZ079-080-083-085-087-088-110-112-115-119-120-291900
...EASTERN KENTUCKY...

CITY           SKY/WX    TMP DP  RH WIND       PRES   REMARKS
JACKSON        MOSUNNY   87  72  60 VRB3      30.05S HX  93
6HR MIN TEMP:  72; 6HR MAX TEMP:  88;

LONDON         MOSUNNY   84  71  65 VRB5      30.06F
6HR MIN TEMP:  73; 6HR MAX TEMP:  84;

SOMERSET*      PTSUNNY   82  73  74 S3        30.06S HAZE
MONTICELLO*    SUNNY     90  77  65 CALM      30.07S HX 103
6HR MIN TEMP:  73; 6HR MAX TEMP:  91;

WILLIAMSBURG*  MOSUNNY   82  77  83 CALM      30.06F HX  91
MIDDLESBORO*   MOSUNNY   87  72  62 W3        30.05S HX  93
6HR MIN TEMP:  72; 6HR MAX TEMP:  89;

HAZARD APT*    PTCLDY    88  72  58 S5        30.04F HX  94
BLACK MTN*       N/A     79  66  65 CALM        N/A
PIKEVILLE APT* MOSUNNY   84  73  70 CALM      30.05F HX  91
BIG SANDY*     PTCLDY    86  73  65 W3        30.04S HX  94
6HR MIN TEMP:  73; 6HR MAX TEMP:  87;

MOREHEAD APT*  PTCLDY    88  72  58 VRB3      30.04S HX  94
$$

KYZ035-036-041-042-044-050-067-078-099-291900
...CENTRAL KENTUCKY...

CITY           SKY/WX    TMP DP  RH WIND       PRES   REMARKS
MT STERLING*   MOSUNNY   88  73  62 S5        30.03F HX  96
FLEMING/MASON* MOSUNNY   88  75  66 CALM      30.02S HX  97
DANVILLE*      CLOUDY    84  77  79 SW8       30.04F HX  94
RICHMOND*      MOSUNNY   86  73  66 SW5       30.03F HX  93
LEXINGTON      MOSUNNY   90  75  61 VRB3      30.01F HX 100
6HR MIN TEMP:  72; 6HR MAX TEMP:  90;

FRANKFORT      MOSUNNY   88  75  65 SW7       29.99F HX  97
6HR MIN TEMP:  73; 6HR MAX TEMP:  89;

$$

KYZ091>093-OHZ055-061-077-WVZ005-015-034-035-042-291900
...SOUTHERN OHIO/WEST VIRGINIA...

CITY           SKY/WX    TMP DP  RH WIND       PRES   REMARKS
COVINGTON      PTSUNNY   89  74  60 VRB3      29.98F HX  98
COLUMBUS       MOSUNNY   89  70  53 S5        29.97S HX  94
DAYTON         PTSUNNY   88  73  61 SW8       29.98S HX  95
WILMINGTON     PTSUNNY   87  73  62 VRB7      29.99S HX  94
HUNTINGTON     MOSUNNY   89  73  59 W5        30.00R HX  97
CHARLESTON     PTSUNNY   85  73  67 W7        30.00S HX  91
PINEVILLE*     PTSUNNY   88  73  62 MISG      30.10F HX  96
BECKLEY        LGT RAIN  75  67  76 E6        30.11F
BLUEFIELD      PTSUNNY   82  68  62 CALM      30.13F
$$

VAZ002-007-008-TNZ017-027-036-066-071-291900
...SOUTHWEST VIRGINIA/EAST TENNESSEE...

CITY           SKY/WX    TMP DP  RH WIND       PRES   REMARKS
WISE*          MOSUNNY   86  66  51 NE6       30.13F
ABINGDON*      MOSUNNY   86  70  58 NW3       30.09S HX  90
BRISTOL        MOSUNNY   87  70  56 VRB5      30.06F HX  92
KNOXVILLE      MOSUNNY   88  71  57 VRB3      30.02F HX  94
OAK RIDGE      MOSUNNY   90  73  57 NE6       30.04F HX  98
CROSSVILLE     MOSUNNY   86  71  60 NW6       30.09F HX  91
NASHVILLE      MOSUNNY   90  76  63 CALM      30.03F HX 101
$$

...KEY TO REMARKS...
VSB - VISIBILITY IN MILES
WCI - WIND CHILL INDEX
HX  - HEAT INDEX

$$



USA.gov is the U.S. government's official web portal to all federal, state and local government web resources and services.